OpenBCM V2.0.2 (Linux)

Packet Radio Mailbox

IZ3LSV

[San Dona' di P. JN]

 Login: GUEST





  
LU9DCE > KEPS     12.03.18 18:13l 259 Lines 12848 Bytes #999 (0) @ WW
BID : 34110_LU9DCE
Read: GUEST
Subj: SAT TLE OF 12
Path: IZ3LSV<IR2UBX<EA2RCF<LU9DCE
Sent: 180312/1601Z @:LU9DCE.TOR.BA.ARG.SOAM #:34110 [TORTUGUITAS] FBB7.07
From: LU9DCE@LU9DCE.TOR.BA.ARG.SOAM
To  : KEPS@WW


            __    _  _  ___  ____   ___  ____    ____  ____  ____
           (  )  / )( \/ _ \(    \ / __)(  __)  (  _ \(  _ \/ ___)
           / (_/\) \/ (\__  )) D (( (__  ) _)    ) _ ( ) _ (\___ \
           \____/\____/(___/(____/ \___)(____)  (____/(____/(____/
               ESTACION DE PACKET RADIO - BUENOS AIRES (GF05OM)
                   BOLETINES INFORMATIVOS PROGRAMADOS (BIP)
                    LU9DCE@GMX.COM - RF 147070 @ 1200 BAUD
                           telnet lu9dce.dynu.com
             BBS port 6300 / NODE port 3694 / DXCLUSTER port 9000

+------------------------------------------------------------------------------+
OSCAR 7
1  7530U 74089B   18070.88714929 -.00000020 +00000-0 +15541-3 0  9999
2  7530 101.6749 039.7139 0012122 162.0131 223.3738 12.53631593982172
OSCAR 11 (UoSAT 2)
1 14781U 84021B   18070.84011374  .00000067  00000-0  14416-4 0  9993
2 14781  97.6623 111.1420 0009559  49.6440 310.5607 14.82985812830013
OSCAR 19 (LUSAT)
1 20442U 90005G   18070.87122561 +.00000003 +00000-0 +17290-4 0  9990
2 20442 098.6021 010.0053 0012911 078.5002 281.7631 14.32888959469896
KITSAT B
1 22825U 93061C   18071.45449349  .00000009  00000-0  21415-4 0  9993
2 22825  98.8519  45.8725 0007324 269.1520  90.8822 14.30023876275741
POSAT 1
1 22826U 93061D   18071.49369309 -.00000003  00000-0  16726-4 0  9999
2 22826  98.8461  45.9621 0007857 257.5052 102.5251 14.30354810275939
RADIO ROSTO
1 23439U 94085A   18070.70569396 -.00000058 +00000-0 -42435-3 0  9994
2 23439 064.8165 146.4916 0160604 199.5535 326.8443 11.27566613955577
JAS 2
1 24278U 96046B   18070.91845607 -.00000038 +00000-0 -21666-5 0  9993
2 24278 098.5267 283.0247 0350451 003.4574 356.8871 13.53081853064835
TECHSAT 1B
1 25397U 98043D   18070.90169975 -.00000011 +00000-0 +14358-4 0  9990
2 25397 098.6409 012.9975 0000765 005.1565 354.9621 14.23641197021660
ISS (ZARYA)
1 25544U 98067A   18071.58085875  .00002370  00000-0  42878-4 0  9998
2 25544  51.6418 140.3164 0002157 175.6559 325.8296 15.54220702103499
PCSAT
1 26931U 01043C   18070.61183545 -.00000030 +00000-0 +20346-4 0  9991
2 26931 067.0504 121.1850 0006365 282.7951 077.2439 14.30496552858526
SAUDISAT 1C
1 27607U 02058C   18070.88033099  .00000024  00000-0  24138-4 0  9991
2 27607  64.5565  27.4602 0053825 351.2520   8.7638 14.75426995818604
CUTE-1
1 27844U 03031E   18070.86442853  .00000069  00000-0  50721-4 0  9992
2 27844  98.6894  80.9459 0008730 296.1734  63.8545 14.22098911762368
CUBESAT XI 4
1 27848U 03031J   18070.72635058  .00000042  00000-0  39198-4 0  9998
2 27848  98.6982  81.1743 0008743 307.9082  52.1304 14.21704710762218
MOZHAYETS 4
1 27939U 03042A   18071.57355729  .00000109  00000-0  28081-4 0  9992
2 27939  97.9734 213.2930 0014349  95.1580 327.6245 14.66663726772653
CUBESAT XI 5
1 28895U 05043F   18070.85094450  .00000132  00000-0  34175-4 0  9995
2 28895  97.8937 226.3284 0017158  21.8178 338.3752 14.63516951659634
CUTE-1.7+APD II
1 32785U 08021C   18070.88415003  .00000238  00000-0  31508-4 0  9995
2 32785  97.5522  87.6855 0013202   8.1732 351.9698 14.88073954534704
DELFI C3
1 32789U 08021G   18071.23514389  .00001754  00000-0  12506-3 0  9996
2 32789  97.5244 128.4568 0011045 267.3009  92.6954 15.05807074537191
SEEDS
1 32791U 08021J   18071.53365259  .00000415  00000-0  47841-4 0  9996
2 32791  97.5434  93.4357 0012919 347.0693  13.0193 14.90485202535118
YUBELEINY
1 32953U 08025A   18071.53854749  .00000033  00000-0  16239-3 0  9999
2 32953  82.4993  72.7827 0020271  62.4579 297.8558 12.43082196444762
PRISM (HITOMI)
1 33493U 09002B   18071.39509525  .00000637  00000-0  62238-4 0  9999
2 33493  98.1392 329.7278 0013724 277.4243  82.5426 14.96101487495871
KKS-1 (KISEKI)
1 33499U 09002H   18071.19265489  .00000099  00000-0  22661-4 0  9999
2 33499  98.3512 249.8267 0008160 237.0457 122.9967 14.75301638490871
SWISSCUBE
1 35932U 09051B   18071.41156400  .00000124  00000-0  39059-4 0  9992
2 35932  98.5294 220.3267 0008516 141.6771 218.5033 14.56128980449351
BEESAT
1 35933U 09051C   18070.96480833  .00000107  00000-0  35091-4 0  9995
2 35933  98.5334 221.3546 0006475 152.8491 207.3046 14.56236283449393
ITUPSAT 1
1 35935U 09051E   18070.96475894  .00000082  00000-0  30026-4 0  9993
2 35935  98.5447 221.6089 0008852 150.3943 209.7756 14.55416881449185
XIWANG-1 (HOPE-1)
1 36122U 09072B   18070.95411239 -.00000040 +00000-0 +59003-5 0  9999
2 36122 100.0824 090.1131 0007228 342.2457 017.8404 13.16343654395751
TISAT 1
1 36799U 10035E   18070.79115976  .00000490  00000-0  55913-4 0  9994
2 36799  98.0901 204.5229 0012886 162.8703 197.2952 14.90715830415642
JUGNU
1 37839U 11058B   18070.87659523  .00000331  00000-0  34603-4 0  9993
2 37839  19.9610 267.3233 0018904 254.2464 233.8178 14.12611886331594
SRMSAT
1 37841U 11058D   18070.96576698 +.00000311 +00000-0 +25538-4 0  9992
2 37841 019.9727 313.9802 0012001 142.8459 332.1009 14.10600175331047
M-CUBED/EXP-1 PRIME
1 37855U 11061F   18070.96630002 +.00002367 +00000-0 +12851-3 0  9997
2 37855 101.7258 083.7432 0177480 009.9660 350.4997 15.04142831346568
HORYU 2
1 38340U 12025D   18071.50925688  .00000178  00000-0  34296-4 0  9992
2 38340  98.3732  89.8786 0012201 153.1848 206.9993 14.75510027312853
STRAND 1
1 39090U 13009E   18070.91264881 +.00000035 +00000-0 +27812-4 0  9991
2 39090 098.5313 278.5075 0008408 221.1689 138.8863 14.35013940263856
SOMP
1 39134U 13015E   18071.22410868  .00001461  00000-0  78970-4 0  9995
2 39134  64.8629  80.5013 0021882 223.4857 136.4545 15.18879741270172
BEESAT 3
1 39135U 13015F   18071.48424834  .00001031  00000-0  62458-4 0  9999
2 39135  64.8676  91.7764 0027326 246.8225 113.0021 15.16446124269989
BEESAT 2
1 39136U 13015G   18070.56265721  .00000786  00000-0  50710-4 0  9990
2 39136  64.8683  97.2702 0028251 246.4005 113.4154 15.15924018269793
CUBEBUG 1
1 39153U 13018D   18071.51778406  .00000198  00000-0  32911-4 0  9997
2 39153  97.9772 167.3474 0015655 258.1600 101.7856 14.80351573263286
ZACUBE
1 39417U 13066B   18070.68003426 +.00000232 +00000-0 +35621-4 0  9993
2 39417 097.5985 104.4713 0060604 114.0753 246.6817 14.80887148232365
TRITON 1
1 39427U 13066M   18070.94268780 +.00000143 +00000-0 +30960-4 0  9991
2 39427 097.6390 073.3323 0113391 210.3047 149.1570 14.67619922230129
GOMX 1
1 39430U 13066Q   18071.47057554  .00000172  00000-0  40626-4 0  9991
2 39430  97.6887  55.3635 0150170 275.9630  82.4474 14.59036273229045
HUMSAT D
1 39433U 13066T   18071.38675382  .00000484  00000-0  53063-4 0  9994
2 39433  97.6165 131.0963 0031991  47.1744 313.2156 14.91770078233992
50 SAT
1 39436U 13066W   18071.53675675  .00088093  00000-0  94804-3 0  9998
2 39436  97.7116 200.1136 0005340 211.0278 149.0665 15.63423543238150
CUBEBUG 2
1 39440U 13066AA  18071.10731324  .00000191  00000-0  33609-4 0  9990
2 39440  97.6081  92.0817 0081398 149.9186 210.6736 14.75622703231601
FUNCUBE 1
1 39444U 13066AE  18071.53720719  .00000284  00000-0  41391-4 0  9997
2 39444  97.5994 106.6860 0059817 107.2128 253.5645 14.81654485231346
UWE-3
1 39446U 13066AG  18070.75478732 +.00000223 +00000-0 +36203-4 0  9996
2 39446 097.6020 097.7798 0071470 132.7587 227.9668 14.78156016230139
SPROUT
1 39770U 14029E   18071.54655521  .00000931  00000-0  11081-3 0  9999
2 39770  97.8713 173.4389 0009614 157.6788 202.4844 14.86708891206004
UNISAT 6
1 40012U 14033C   18071.19521834  .00000162  00000-0  31738-4 0  9993
2 40012  97.8230 310.9812 0059114 150.4837 209.9731 14.73774015200417
DUCHIFAT 1
1 40021U 14033M   18071.30518684  .00000456  00000-0  52840-4 0  9998
2 40021  97.9174 349.8503 0013923 133.1444 227.0940 14.90219141202523
QB50P1
1 40025U 14033R   18071.15692530  .00000276  00000-0  35554-4 0  9991
2 40025  97.9082 346.7442 0013361 139.1507 221.0714 14.88651315202359
CHUBUSAT 1
1 40300U 14070C   18071.47316150  .00000639  00000-0  31442-4 0  9999
2 40300  97.3701 151.2141 0018612 239.6827 176.0500 15.21418421185570
NUDT-PHONESAT
1 40900U 15049B   18071.20931154  .00002341  00000-0  10885-3 0  9999
2 40900  97.4435  80.5997 0013945  16.3287 343.8395 15.20883978137179
ZDPS 2A
1 40901U 15049C   18071.44417002  .00001104  00000-0  59307-4 0  9996
2 40901  97.4602  79.3085 0014319  20.8780 339.3035 15.16899950136996
ZDPS 2B
1 40902U 15049D   18071.20702154  .00000897  00000-0  49082-4 0  9993
2 40902  97.4494  77.2593 0014334  18.8983 341.2779 15.16702649136946
XW-2A
1 40903U 15049E   18071.50994837  .00002064  00000-0  53563-4 0  9995
2 40903  97.3963 105.3649 0015000  25.9743 334.2252 15.40094625138929
KAITUO 1A
1 40904U 15049F   18071.52561226  .00000315  00000-0  20414-4 0  9996
2 40904  97.4591  76.9235 0015574  19.0040 139.2322 15.14908904136869
OBJECT G
1 40905U 15049G   18071.51837361  .00000432  00000-0  27424-4 0  9990
2 40905  97.4582  75.1527 0016117  11.3662 348.7931 15.13879969136796
XW-2C
1 40906U 15049H   18071.49930611  .00000690  00000-0  40363-4 0  9993
2 40906  97.4601  76.7727 0015364  11.5758 348.5825 15.15049728136850
XW-2D
1 40907U 15049J   18071.46107453  .00000773  00000-0  44605-4 0  9996
2 40907  97.4574  76.4445 0014674   9.9272 350.2248 15.15190155136859
LILACSAT 2
1 40908U 15049K   18071.22049901  .00000422  00000-0  27211-4 0  9999
2 40908  97.4683  75.6900 0016330  10.8160 349.3419 15.13426784136707
XW-2F
1 40910U 15049M   18071.48365081  .00001119  00000-0  61037-4 0  9998
2 40910  97.4581  77.6076 0015299   5.8941 354.2469 15.16313177136802
XW-2B
1 40911U 15049N   18071.47511669  .00000743  00000-0  43084-4 0  9997
2 40911  97.4611  76.9584 0014601  10.4299 349.7233 15.15137977136750
